Regional Weather Roundup
Issued by NWS

Home | Current Version | Previous Version | Text Only | Print | Product List | Glossary Off
Versions: 1 2 3 4 5 6 7 8 9 10 11 12 13 14 15 16 17 18 19 20 21 22 23 24 25 26 27 28 29 30 31 32 33 34 35 36 37 38 39 40 41 42 43 44 45 46 47 48 49 50

000
ASUS43 KMKX 240200
RWRWI

WISCONSIN REGIONAL WEATHER ROUNDUP
NATIONAL WEATHER SERVICE MILWAUKEE/SULLIVAN WI
800 PM CST SUN NOV 23 2014

NOTE: "FAIR" INDICATES FEW OR NO CLOUDS BELOW 12,000 FEET WITH NO
SIGNIFICANT WEATHER AND/OR OBSTRUCTIONS TO VISIBILITY.

WIZ001-002-006>008-014>016-023>028-240300-
NORTHWEST WISCONSIN

CITY           SKY/WX    TMP DP  RH WIND       PRES   REMARKS
SUPERIOR ARPT  DRIZZLE   37  37  99 N6        29.36F WCI  32
ASHLAND        FOG       37  37 100 N7        29.34F VSB 1/4 WCI  32
HAYWARD        LGT RAIN  40  38  93 CALM      29.31F FOG
SIREN          CLOUDY    37  36  98 NW8       29.36S FOG     WCI  30
CUMBERLAND     CLOUDY    36  36 100 N9        29.31F FOG     WCI  29
RICE LAKE      CLOUDY    38  38  98 NW6       29.32F FOG     WCI  34
CHETEK         LGT RAIN  38  38 100 NW5       29.30F WCI  35
LADYSMITH      FOG       42  42  97 CALM      29.31F VSB 1/4
EAU CLAIRE     NOT AVBL
MENOMONIE      DRIZZLE   41  41  99 W9        29.31F
NEW RICHMOND   CLOUDY    37  37 100 NW9       29.35F FOG     WCI  30
OSCEOLA        CLOUDY    37  37 100 W5        29.39S WCI  33
$$

WIZ003>005-009-010-017-018-240300-
NORTH CENTRAL WISCONSIN

CITY           SKY/WX    TMP DP  RH WIND       PRES   REMARKS
MANITOWISH WTR FOG       37  37 100 CALM      29.32F VSB 1/4
ARBOR VITAE    DRZL/FOG  42  41  96 CALM      29.31F VSB 1/2
WOODRUFF       DRZL/FOG  42  41  96 CALM      29.31F VSB 1/2
RHINELANDER    FOG       39  39 100 CALM      29.31F VSB 1/4
EAGLE RIVER    DRZL/FOG  41  41 100 CALM      29.32F VSB 1/2
LAND O LAKES   RAIN      43  43 100 CALM      29.33F
PHILLIPS       FOG       42  42 100 CALM      29.30F VSB 1/4
TOMAHAWK       DRZL/FOG  41  41  97 CALM      29.32F VSB 1/2
MEDFORD        DRZL/FOG  43  43 100 SE3       29.29F VSB 3/4
MERRILL        MIX PCPN  42  42 100 CALM      29.31F VSB 1/4
$$

WIZ029-030-035-036-043>047-240300-
CENTRAL WISCONSIN

CITY           SKY/WX    TMP DP  RH WIND       PRES   REMARKS
WAUSAU         FOG       43  43 100 E5        29.28F VSB 1/4
MOSINEE        NOT AVBL
MARSHFIELD     FOG       45  44  97 E3        29.28F VSB 1/4
STEVENS POINT  FOG       43  43 100 E3        29.31F VSB 1/4
WAUPACA        DRZL/FOG  46  45  96 CALM      29.32F VSB 1/4
WAUTOMA        FOG       46  46 100 CALM      29.30F VSB 1/2
WISC RAPIDS    CLOUDY    45  43  93 E5        29.30F
CAMP DOUGLAS   CLOUDY    46  46 100 E5        29.27F FOG
$$

WIZ011>013-019>022-031-037>040-048>050-240300-
NORTHEAST WISCONSIN

CITY           SKY/WX    TMP DP  RH WIND       PRES   REMARKS
ANTIGO         FOG       40  40 100 SE6       29.32F VSB<1/4
SHAWANO        RAIN      41  40  95 CALM      29.34F VSB<1/4
OCONTO         CLOUDY    43  43 100 SE6       29.35F
STURGEON BAY   CLOUDY    45  43  93 S10       29.36F
GREEN BAY      LGT RAIN  46  44  93 SE7       29.32F FOG
MANITOWOC      NOT AVBL
APPLETON       LGT RAIN  45  45 100 SE7       29.32F VSB 1/4
CLINTONVILLE   DRZL/FOG  43  43 100 NE3       29.33F VSB 1/4
OSHKOSH        LGT RAIN  46  44  93 SE9       29.30F FOG
$$

WIZ032>034-041-042-053>061-240300-
SOUTHWEST WISCONSIN

CITY           SKY/WX    TMP DP  RH WIND       PRES   REMARKS
LA CROSSE      FOG       47  45  93 CALM      29.26F VSB 1/2
SPARTA         DRZL/FOG  46  45  99 CALM      29.29F VSB 1/2
VIROQUA        CLOUDY    46  46 100 CALM      29.27F VSB 1/4
BOSCOBEL       FOG       48  46  93 NE3       29.26F VSB 1
PRAIRIE DU CHI FOG       46  45  96 CALM      29.26F VSB 1/2
PLATTEVILLE    CLOUDY    46  46  97 E8        29.25F VSB 1/2
$$

WIZ056-057-062-063-064-067-068-240300-
SOUTH CENTRAL WISCONSIN

CITY           SKY/WX    TMP DP  RH WIND       PRES   REMARKS
REEDSBURG      CLOUDY    46  46  99 CALM      29.27F FOG
BARABOO/DELLS  DRIZZLE   46  45  95 SE5       29.27F
LONE ROCK      CLOUDY    51  46  83 E8        29.26F HAZE
MINERAL POINT  NOT AVBL
MADISON        LGT RAIN  48  46  93 E6        29.27F FOG
MIDDLETON      CLOUDY    48  48 100 SE6       29.28F
WATERTOWN      RAIN      46  46 100 E6        29.29F
MONROE         DRZL/FOG  46  46 100 E5        29.26F VSB 1/4
JANESVILLE     DRIZZLE   48  46  93 E6        29.27F
$$

WIZ051-052-058>065-066-070>072-240300-
SOUTHEAST WISCONSIN

CITY           SKY/WX    TMP DP  RH WIND       PRES   REMARKS
MILWAUKEE      LGT RAIN  47  45  93 SE10      29.31F VSB 1
WAUKESHA       CLOUDY    45  45 100 SE7       29.31F FOG
MILWAUKEE/TIMM RAIN      46  45  93 SE7       29.33F
RACINE         RAIN      46  45  96 SE7       29.31F FOG
BURLINGTON     RAIN      45  45 100 E6        29.30F
KENOSHA        RAIN      48  47  96 SE7       29.29F FOG
FOND DU LAC    LGT RAIN  47  44  90 SE9       29.30F
SHEBOYGAN      LGT RAIN  45  44  97 CALM      29.33F FOG
WEST BEND      LGT RAIN  45  43  93 SE6       29.32F
JUNEAU         DRIZZLE   46  46 100 E7        29.32F
$$

LSZ147-162-240300-
LAKE SUPERIOR

STATION/POSITION TIME  TEMP    WIND        PRES    WAVE
                       AIR SEA DIR/SP/G            HT/PER
                 (UTC) (F)     (DEG/KT/KT) (MB)    (FT/S)
DEVILS ISLAND    0100   39     300/  5/  5  994.7F
PORT WING        0100   35     200/  2/  3  994.9
SAXON HARBOR     0100   37        CALM      993.9F
$$

LMZ867-665-643>646-240300-
LAKE MICHIGAN

STATION/POSITION TIME  TEMP    WIND        PRES    WAVE
                       AIR SEA DIR/SP/G            HT/PER
                 (UTC) (F)     (DEG/KT/KT) (MB)    (FT/S)
CHAMBERS ISLAND  0100   45     140/  5/ 11  995.9F
N MID LAKE BUOY  0050   45 42  160/ 14/ 16  997.0F   4/ 7
NORTHPORT PIER   0100   44     160/  8/ 15  996.3F
SISTER BAY       0013          180/ 15/ 21   N/A
ALGOMA LAKESHORE 2343          170/  8/ 10   N/A
KEWAUNEE LAKESHO 0100   41     170/  6/  6  994.8F
SHEBOYGAN LAKESH 0100   44 39  190/  7/  9  995.3F
PORT WASHINGTON  0100   44        CALM      995.6F
ATWATER BUOY     0100   47      CALM  /  6  996.7F
MILWAUKEE LAKESH 0100   44     330/  1/  1   N/A
S MID LAKE BUOY  0050   46 42  110/ 12/ 14  994.6F   2/ 3
KENOSHA   LAKESH 0100   45     130/ 13/ 15  993.9F
$$

TC  - TEMPERATURE IN CELSIUS
VSB - VISIBILITY IN STATUTE MILES
WCI - WIND CHILL INDEX
HX  - HEAT INDEX



USA.gov is the U.S. government's official web portal to all federal, state and local government web resources and services.